Погода в Озерках

Россия / Калининградская область     54°37′46″N   20°53′32″E
темп.,
°C
ветер,
м/с
пор.,
м/с
влажн.,
%
обл.,
%
осадки,
мм/ч
давл.,
гПа
погр.,
м
13 апреля, вт
вт1323:00+3сз5991100 0.2 1022660
02:00+4зсз4884100 0.2 1022428
05:00+4сз41080100 0.0 1023496
08:00+4сз4878100 0.1 1024472
11:00+6сз565495 0.0 1024962
14:00+7ссз5648100 0.0 10251183
17:00+6сз5654100 0.0 1024848
20:00+3сз2682100 0.0 1024250
14 апреля, ср
ср1423:00+2зсз2590100 0.0 1024171
02:00+2зсз2493100 0.0 1023102
05:00+2зсз2392100 0.0 102290
08:00+4ссз2381100 0.0 1022356
11:00+6с4464100 0.0 1022808
14:00+7с5659100 0.0 1022924
17:00+6ссз6969100 0.0 1022574
20:00+4с61179100 0.0 1022432
15 апреля, чт
чт1523:00+5с5978100 0.1 1022439
02:00+4ссв51075100 0.1 1022670
05:00+3ссв61289100 0.2 1022684
08:00+4ссв61381100 0.6 1022857
11:00+5ссв61176100 0.1 1021846
14:00+7ссв41076100 0.1 1021918
17:00+8св61164100 0.0 10211052
20:00+5ссв51084100 0.2 1022818
16 апреля, пт
пт1623:00+5св4982100 0.4 1021735
02:00+4ссв51094100 1.0 1020761
05:00+4ссв51086100 0.2 1020516
08:00+4ссв51192100 0.7 1020586
11:00+5св51293100 1.1 1020560
14:00+9св6982100 1.1 1021750
17:00+11всв6978100 0.0 10211056
20:00+9св41284100 0.1 1022579
17 апреля, сб
сб1723:00+9св41184100 0.0 1023449
02:00+8св41184100 0.0 1023405
05:00+7св41083100 0.0 1024381
08:00+8всв4980100 0.0 1025412
11:00+10всв4776100 0.0 1026545
14:00+13всв576873 0.0 1026890
17:00+12всв4877100 0.0 1026621
20:00+10всв3884100 0.0 1027231